Regional Weather Roundup
Issued by NWS

Home | Current Version | Previous Version | Text Only | Print | Product List | Glossary Off
Versions: 1 2 3 4 5 6 7 8 9 10 11 12 13 14 15 16 17 18 19 20 21 22 23 24 25 26 27 28 29 30 31 32 33 34 35 36 37 38 39 40 41 42 43 44 45 46 47 48 49 50

000
ASUS45 KSLC 232310
RWRUT

UTAH REGIONAL WEATHER ROUNDUP
NATIONAL WEATHER SERVICE SALT LAKE CITY UT
500 PM MDT WED JUL 23 2014

UTZ001>011-023>025-240000-

NORTHERN UTAH

CITY           SKY/WX    TMP DP  RH WIND       PRES   REMARKS
HILL AFB       SUNNY     98  38  12 W5        30.05F HX  93
LOGAN          NOT AVBL
OGDEN          SUNNY     99  39  12 N8        30.01F HX  94
PROVO AIRPORT  MOSUNNY  100  43  14 E5        30.05F HX  96
SALT LAKE CITY PTSUNNY  100  36  11 W7        29.97F HX  94
VERNAL         SUNNY     96  35  11 SW7G21    30.13F HX  91
WENDOVER       MOSUNNY  106  37   9 SW24G38   29.95F HX 100
HEBER CITY     SUNNY     97  36  11 SW13G21   30.13F HX  92
WEST JORDAN    SUNNY    104  54  18 S20G30    30.03F HX 102

$$

UTZ012>022-026-027-240000-

SOUTHERN UTAH

CITY           SKY/WX    TMP DP  RH WIND       PRES   REMARKS
BRYCE CANYON   MOSUNNY   83  37  19 S12       30.37F
CEDAR CITY     MOSUNNY   94  31  10 SW13G22   30.17F
MILFORD        SUNNY    100  36  11 SW23G33   30.08F HX  94
MOAB/CYNLANDS  SUNNY    100  38  11 SE16      30.05F HX  95
PRICE          CLOUDY    93  32  11 W9        30.22F
ST GEORGE      CLEAR    106  37   9 SW10      29.94F HX 100
KANAB            N/A    100  36  10 SW6       30.14F HX  95

$$

REGIONAL REPORTS     COLORADO/ARIZONA

CITY           SKY/WX    TMP DP  RH WIND       PRES   REMARKS
CRAIG, CO      PTSUNNY   91  35  13 W10G20    30.24F
GRAND JUNCTION MOSUNNY   97  33  10 CALM      30.10F HX  91
RIFLE          MOSUNNY   98  32  10 W9        30.16F HX  92
MONTROSE       CLOUDY    92  37  14 MISG      30.23F
CORTEZ         SUNNY     97  31   9 S9G16     30.23F HX  91
PAGE, AZ       MOSUNNY  102  39  11 VRB6      30.05F HX  97
GRAND CANYON   PTSUNNY   87  37  17 SW6       30.30F
KINGMAN        SUNNY    102  36  10 SW12G26   30.02F HX  96
FLAGSTAFF      CLOUDY    81  47  30 S12       30.35F

$$

REGIONAL REPORTS    NEVADA/IDAHO/WYOMING

CITY           SKY/WX    TMP DP  RH WIND       PRES   REMARKS
LAS VEGAS, NV  MOSUNNY  111  23   4 SW17G23   29.83F HX 102
ELY            SUNNY     95  21   7 S12G31    30.18F
ELKO           SUNNY     95  23   7 W22G29    30.05F
POCATELLO, ID  MOSUNNY   96  38  13 NW8       30.03F HX  91
BURLEY         MOSUNNY   91  43  18 N7        29.97F
EVANSTON, WY   SUNNY     91  37  15 SW16G24   30.27F
ROCK SPRINGS   MOSUNNY   90  28  11 SW15      30.26

$$


USA.gov is the U.S. government's official web portal to all federal, state and local government web resources and services.